STARLINK-30567, 58067

Orbit data source: Space-Track

STARLINK-30567, 58067 is a payload satellite owned by SpaceX/Seattle (US) in LEO that was launched on Fri, 13 Oct 2023 UTC via an FALCON 9 launch vehicle from the Air Force Eastern Test Range (AFETR). Payload-class satellites include a variety of spacecraft equipped with specific instruments for various scientific and technological missions. These include communications satellites like Starlink; space stations such as the ISS; scientific satellites like the Hubble; Earth observation satellites from companies like Planet Labs, Umbra, and HawkEye 360; GPS; miniature CubeSats for education and research; and military/defense satellites.

Loading next visibility...
Identifier
58067, 2023-158S
Orbit
LEO
Country
Flag of USUS
Related business
Manufacturer
SpaceX/Seattle
Mission
Operational Commercial Communications
Bus & Motor
STARLINK V2M, Unknown motor
Mass
730 kg wet, ~700 kg dry
Launch date (UTC)
2023-10-13 (3 years ago)
Launch vehicle
FALCON 9
Launch site
Air Force Eastern Test Range (AFETR)
Object type
Payload
Rocket body
Debris
Shape & HBR
Box + 2 Pan, 17.7 m
Radar Cross Section
33.884 m², Large (>1 m²)

Expand to show TLE details & history
Last TLE update: 3 days ago

TLE from 3 days ago
0 STARLINK-30567
1 58067U 23158S   26171.06679065  .00003423  00000-0  13377-3 0  9997
2 58067  43.0048 169.1710 0002170 288.7525  71.3091 15.27600074149220
Epoch: 2026-06-20T01:36Z
TLE epoch observation values (Epoch: 2026-06-20T01:36:10.712Z)
Latitude
-0.00002°
Longitude
-123.16039°
Altitude
482.288 km
Speed
7.626 km/s
True Right ascension
11h 16m 41s
True Declination
0° 00' 00"
Sunlit
Object was in daylight at epoch
Visualization orbit readout
Latitude
Unknown
Longitude
Unknown
Altitude
Unknown
Speed
Unknown
Apparent Right ascension
Unknown
Apparent Declination
Unknown
Sunlit
N/A
Visualization observer readout
Local Sidereal Time
00:39:13
Azimuth
Unknown
Elevation
Unknown
Doppler factor
Unknown
Orbital elements
Apogee altitude
486.423 km
Perigee altitude
483.444 km
Semi-major axis
6,863.07 km
Eccentricity
0.00022
Inclination
43.0048°
RAAN
169.171°
Arg. of periapsis
288.7525°
True anomaly
71.33266°
Mean anomaly
71.3091°
Eccentric anomaly
71.32088°
Mean motion
3.81738 °/min
Orbital period
94.31 mins
BSTAR
0.00013377
Loading maneuver chart data...
Computing Atmospheric mass density...
Loading historical data...
Loading historical data...
Loading historical data...
Loading historical data...
Loading historical data...
Loading historical data...
Loading historical data...

Documentation

Showing up to 5 results
|